Gulkana, AK

11:08 PM AKDT on June 27, 2017 (GMT -0800)
Gulkana

Weather History for PAGK - July, 2013

Change the Weather History Date:

Friday, July 26, 2013

  Actual Average Record
Temperature  
Mean Temperature 64 °F -  
Max Temperature 75 °F 67 °F 88 °F (1953)
Min Temperature 53 °F 46 °F 35 °F (1954)
Degree Days  
Heating Degree Days 1    
Growing Degree Days 14 (Base 50)    
Moisture  
Dew Point 53 °F    
Average Humidity 81    
Maximum Humidity 100    
Minimum Humidity 34    
Precipitation  
Precipitation 0.00 in - - ()
Sea Level Pressure  
Sea Level Pressure 30.14 in    
Wind  
Wind Speed 4 mph (SSE)    
Max Wind Speed 8 mph    
Max Gust Speed -    
Visibility 7 miles    
Events Fog , Rain    
Averages and records for this station are not official NWS values.
T = Trace of Precipitation, MM = Missing Value Source: NWS Daily Summary

Daily Weather History Graph

Daily Weather History Graph

Search for Another Location

Airport or City:

Trip Planner

Search our weather history database for the weather conditions in past years. The results will help you decide how hot, cold, wet, or windy it might be!

Date:

Astronomy

Jul. 26, 2013 Rise Set
Actual Time 4:51 AM AKDT 10:42 PM AKDT
Civil Twilight 3:31 AM AKDT 12:01 AM AKDT
Nautical Twilight Sun does not set Sun does not set
Astronomical Twilight Sun does not set Sun does not set
Moon 10:59 PM AKDT (7/26) 11:33 AM AKDT (7/26)
Length of Visible Light 20h 30m
Length of Day
17h 51m
Waning Gibbous, 79% of the Moon is Illuminated
Jul 26
Waning Gibbous
Jul 29
Last Quarter
Aug 6
New
Aug 14
First Quarter
Aug 20
Full

Hourly Weather History & Observations

Time (AKDT) Temp. Dew Point Humidity Pressure Visibility Wind Dir Wind Speed Gust Speed Precip Events Conditions
12:04 AM 55.9 °F 55.9 °F 100% 30.08 in 2.0 mi Calm Calm - 0.00 in Rain Light Rain
12:10 AM 55.9 °F 55.9 °F 100% 30.08 in 3.0 mi South 5.8 mph - 0.00 in Rain Light Rain
12:13 AM 55.9 °F 55.9 °F 100% 30.08 in 2.5 mi South 4.6 mph - 0.00 in   Mostly Cloudy
12:17 AM 55.9 °F 55.0 °F 97% 30.08 in 1.8 mi SSE 4.6 mph - 0.00 in   Overcast
12:22 AM 55.9 °F 55.0 °F 97% 30.08 in 0.8 mi SSE 4.6 mph - 0.00 in   Overcast
12:29 AM 55.9 °F 55.9 °F 100% 30.08 in 0.5 mi SSE 4.6 mph - 0.00 in Fog , Rain Light Rain
12:33 AM 55.9 °F 55.9 °F 100% 30.08 in 0.5 mi SSE 5.8 mph - 0.00 in Fog , Rain Light Rain
12:42 AM 55.9 °F 55.9 °F 100% 30.09 in 0.5 mi SSE 4.6 mph - 0.00 in Fog , Rain Light Rain
12:53 AM 55.9 °F 55.0 °F 97% 30.07 in 0.8 mi SSE 4.6 mph - 0.00 in Rain Light Rain
1:53 AM 55.0 °F 55.0 °F 100% 30.09 in 0.5 mi South 4.6 mph - 0.00 in Fog Fog
2:53 AM 54.0 °F 54.0 °F 100% 30.11 in 1.5 mi South 5.8 mph - 0.00 in   Overcast
3:06 AM 54.0 °F 54.0 °F 100% 30.11 in 2.0 mi SSE 6.9 mph - N/A   Overcast
3:21 AM 54.0 °F 54.0 °F 100% 30.11 in 5.0 mi South 6.9 mph - N/A   Overcast
3:53 AM 53.1 °F 53.1 °F 100% 30.11 in 10.0 mi South 8.1 mph - 0.00 in   Overcast
4:53 AM 53.1 °F 53.1 °F 100% 30.13 in 10.0 mi South 6.9 mph - N/A   Overcast
5:02 AM 53.1 °F 53.1 °F 100% 30.13 in 10.0 mi South 6.9 mph - N/A   Overcast
5:17 AM 53.1 °F 53.1 °F 100% 30.13 in 10.0 mi South 5.8 mph - N/A   Overcast
5:53 AM 53.1 °F 53.1 °F 100% 30.14 in 10.0 mi South 6.9 mph - N/A   Overcast
6:00 AM 53.1 °F 53.1 °F 100% 30.14 in 10.0 mi SSE 6.9 mph - N/A   Overcast
6:53 AM 53.1 °F 53.1 °F 100% 30.15 in 0.5 mi South 6.9 mph - N/A Fog Fog
7:13 AM 54.0 °F 53.1 °F 97% 30.15 in 5.0 mi South 4.6 mph - N/A   Overcast
7:53 AM 54.0 °F 53.1 °F 97% 30.17 in 10.0 mi South 5.8 mph - N/A   Overcast
8:53 AM 55.0 °F 53.1 °F 93% 30.18 in 10.0 mi South 4.6 mph - N/A   Overcast
9:53 AM 55.9 °F 53.1 °F 90% 30.19 in 10.0 mi South 4.6 mph - N/A   Overcast
10:53 AM 59.0 °F 55.0 °F 87% 30.19 in 10.0 mi Variable 4.6 mph - N/A   Overcast
11:53 AM 62.1 °F 55.9 °F 80% 30.19 in 10.0 mi East 3.5 mph - N/A   Mostly Cloudy
12:35 PM 62.1 °F 55.0 °F 78% 30.18 in 10.0 mi ESE 5.8 mph - N/A   Mostly Cloudy
12:53 PM 64.0 °F 55.0 °F 73% 30.18 in 10.0 mi Variable 4.6 mph - N/A   Mostly Cloudy
1:53 PM 68.0 °F 52.0 °F 56% 30.17 in 10.0 mi Variable 4.6 mph - N/A   Mostly Cloudy
2:53 PM 69.1 °F 48.0 °F 47% 30.17 in 10.0 mi Calm Calm - N/A   Mostly Cloudy
3:53 PM 71.1 °F 48.9 °F 45% 30.17 in 10.0 mi Variable 4.6 mph - N/A   Mostly Cloudy
4:53 PM 73.9 °F 48.0 °F 40% 30.16 in 10.0 mi NNW 3.5 mph - N/A   Mostly Cloudy
5:53 PM 72.0 °F 46.9 °F 41% 30.16 in 10.0 mi Calm Calm - N/A   Scattered Clouds
6:53 PM 73.0 °F 46.0 °F 38% 30.15 in 10.0 mi East 3.5 mph - N/A   Scattered Clouds
7:53 PM 71.1 °F 52.0 °F 51% 30.15 in 10.0 mi Calm Calm - N/A   Scattered Clouds
8:53 PM 72.0 °F 48.9 °F 44% 30.16 in 10.0 mi SE 3.5 mph - N/A   Scattered Clouds
9:27 PM 69.1 °F 48.9 °F 49% 30.17 in 10.0 mi South 3.5 mph - N/A   Scattered Clouds
9:53 PM 68.0 °F 50.0 °F 52% 30.17 in 10.0 mi SSW 4.6 mph - N/A   Clear
10:53 PM 62.1 °F 51.1 °F 67% 30.20 in 10.0 mi South 8.1 mph - N/A   Clear
11:53 PM 61.0 °F 52.0 °F 72% 30.22 in 10.0 mi South 8.1 mph - N/A   Clear